Location: ???????????
(54.6970°N, 39.1477°E)
Time: 02:44:09
(UTC+00:00)

Cosmos 2333 - Pass Details

Date: 19 May 2025
Orbit: 830 x 863 km, 70.9° (Epoch: 15 June)

Event Time Altitude Azimuth Distance (km) Brightness Sun altitude
Rises 20:38:56 0° 326° (NW) 3,426 8.6 -14.8°
Reaches altitude 10° 20:41:26 10° 329° (NNW) 2,482 7.8 -14.9°
Maximum altitude 20:47:07 69° 53° (NE) 900 4.4 -15.0°
Enters shadow 20:51:46 15° 135° (SE) 2,095 5.8 -15.1°
